Regional Weather Roundup
Issued by NWS

Home | Current Version | Previous Version | Graphics & Text | Print | Product List | Glossary On
Versions: 1 2 3 4 5 6 7 8 9 10 11 12 13 14 15 16 17 18 19 20 21 22 23 24 25 26 27 28 29 30 31 32 33 34 35 36 37 38 39 40 41 42 43 44 45 46 47 48 49 50
000
ASUS43 KIND 191600
RWRIN

WEATHER ROUNDUP FOR INDIANA
NATIONAL WEATHER SERVICE INDIANAPOLIS IN
1200 PM EDT THU OCT 19 2017

NOTE: "FAIR" INDICATES FEW OR NO CLOUDS BELOW 12,000 FEET WITH NO
SIGNIFICANT WEATHER AND/OR OBSTRUCTIONS TO VISIBILITY.

* - STATION DOES NOT REPORT WEATHER SUCH AS PRECIPITATION OR FOG.

+ - STATION NOT QUALITY CONTROLLED BY THE NATIONAL WEATHER SERVICE.
    USE DATA WITH CAUTION...ESPECIALLY DEWPOINT AND RELATIVE
    HUMIDITY OBSERVATIONS.

INZ001>003-010>013-019-020-191700-
NORTHWEST INDIANA

CITY           SKY/WX    TMP DP  RH WIND       PRES   REMARKS
GARY /AIRPORT/ MOSUNNY   64  28  25 N8        30.20R
KNOX *+        SUNNY     61  46  59 NW5       30.18S
LA PORTE +     SUNNY     62  48  61 NW7       30.19R
MICHIGAN CITY+ SUNNY     61  37  41 N8        30.20R
MONTICELLO +   SUNNY     64  49  57 W8        30.18S
RENSSELAER +   SUNNY     63  43  48 NW5       30.19S

$$

LMZ046-743>745-191700-
SOUTHERN LAKE MICHIGAN

STATION/POSITION TIME  TEMP    WIND        PRES    WAVE
                       AIR SEA DIR/SP/G            HT
                 (UTC) (F)     (DEG/KT/KT) (MB)    (FT)
BURNS HARBOR     1540   59     330/  4/  6 1022.7R
MICHIGAN CITY    1530   61     310/  4/  5   N/A
5NW MICH CITY    1550   59 58  350/  6/  8   N/A     2

$$

INZ004-005-014>016-021>024-191700-
NORTH CENTRAL INDIANA

CITY           SKY/WX    TMP DP  RH WIND       PRES   REMARKS
GOSHEN         SUNNY     61  49  64 W8        30.17S
PERU/GRISSOM   SUNNY     64  50  61 NW13      30.18S
SOUTH BEND     SUNNY     62  50  64 NW9       30.18S
WARSAW +       SUNNY     61  50  67 W8        30.18F

$$

INZ006>009-017-018-025>027-191700-
NORTHEAST INDIANA

CITY           SKY/WX    TMP DP  RH WIND       PRES   REMARKS
AUBURN +       MOSUNNY   61  46  59 W7        30.18S
FORT WAYNE     PTSUNNY   64  48  56 W12       30.18R
KENDALLVILLE + CLOUDY    60  49  65 W7        30.17F

$$

INZ028-029-035-036-043>045-051>053-191700-
WEST CENTRAL INDIANA

CITY           SKY/WX    TMP DP  RH WIND       PRES   REMARKS
GREENCASTLE +  SUNNY     63  46  55 W3        30.23S
LAFAYETTE      SUNNY     62  51  67 SW6       30.20R
TERRE HAUTE    SUNNY     65  49  56 VRB6      30.23R

$$

INZ030>032-037>040-046>048-054>057-064-065-191700-
CENTRAL INDIANA

CITY           SKY/WX    TMP DP  RH WIND       PRES   REMARKS
COLUMBUS       SUNNY     64  48  55 SW7       30.24S
FRANKFORT +    MOSUNNY   68  52  56 W10       30.21S
GREENWOOD *+   SUNNY     69  52  55 SW8       30.23S
INDIANAPOLIS   MOSUNNY   65  50  58 W12       30.22S
-EAGLE CREEK   SUNNY     65  49  56 W7        30.21S
KOKOMO +       SUNNY     66  50  56 W10       30.20R
MT COMFORT *+  SUNNY     64  54  68 SW8       30.22S
SHELBYVILLE    SUNNY     67  49  52 SW7       30.22S

$$

INZ033-034-041-042-049-050-058-059-191700-
EAST CENTRAL INDIANA

CITY           SKY/WX    TMP DP  RH WIND       PRES   REMARKS
MUNCIE         SUNNY     67  48  50 SW9       30.20S
RICHMOND +     SUNNY     64  48  55 W9        30.23S

$$

INZ060-061-067>069-081>083-085>088-191700-
SOUTHWEST INDIANA

CITY           SKY/WX    TMP DP  RH WIND       PRES   REMARKS
EVANSVILLE     SUNNY     66  49  54 S10       30.25F
HUNTINGBURG +  SUNNY     66  51  58 S10       30.26S

$$

INZ062-063-066-070>080-084-089>092-191700-
SOUTH CENTRAL AND SOUTHEAST INDIANA

CITY           SKY/WX    TMP DP  RH WIND       PRES   REMARKS
BLOOMINGTON    SUNNY     66  47  50 SW9       30.24R
MADISON *+     SUNNY     66  45  45 S9        30.28F
SEYMOUR +      SUNNY     70  48  46 SW8       30.25S

$$





USA.gov is the U.S. government's official web portal to all federal, state and local government web resources and services.